Weather History for MMCZ - January, 2013

Change the Weather History Date:

Sunday, January 20, 2013

  Actual Average Record
Temperature  
Mean Temperature 72 °F -  
Max Temperature 78 °F 80 °F 86 °F (2002)
Min Temperature 66 °F 68 °F 53 °F (2014)
Cooling Degree Days 7    
Growing Degree Days 22 (Base 50)    
Moisture  
Dew Point 57 °F    
Average Humidity 61    
Maximum Humidity 73    
Minimum Humidity 44    
Precipitation  
Precipitation 0.00 in - - ()
Sea Level Pressure  
Sea Level Pressure 30.08 in    
Wind  
Wind Speed 7 mph ()    
Max Wind Speed 14 mph    
Max Gust Speed -    
Visibility 7.5 miles    
Events      
Averages and records for this station are not official NWS values.
T = Trace of Precipitation, MM = Missing Value Source: Averaged Metar Reports

Daily Weather History Graph

Daily Weather History Graph

Search for Another Location

Airport or City:

Trip Planner

Search our weather history database for the weather conditions in past years. The results will help you decide how hot, cold, wet, or windy it might be!

Date:

Astronomy

Jan. 20, 2013 Rise Set
Actual Time 6:26 AM CST 5:31 PM CST
Civil Twilight 6:02 AM CST 5:55 PM CST
Nautical Twilight 5:35 AM CST 6:22 PM CST
Astronomical Twilight 5:09 AM CST 6:48 PM CST
Moon 12:30 PM CST (1/20) 1:02 AM CST (1/20)
Length of Visible Light 11h 52m
Length of Day
11h 05m
Waxing Gibbous, 66% of the Moon is Illuminated
Jan 20
Waxing Gibbous
Jan 26
Full
Feb 3
Last Quarter
Feb 10
New
Feb 17
First Quarter

Hourly Weather History & Observations

Time (CST) Temp. Dew Point Humidity Pressure Visibility Wind Dir Wind Speed Gust Speed Precip Events Conditions
12:40 AM 68.0 °F 55.4 °F 64% 30.11 in 7.0 mi North 5.8 mph - N/A   Scattered Clouds
1:40 AM 68.0 °F 57.2 °F 68% 30.10 in 7.0 mi North 9.2 mph - N/A   Scattered Clouds
2:42 AM 68.0 °F 53.6 °F 60% 30.11 in 7.0 mi North 5.8 mph - N/A   Scattered Clouds
3:45 AM 66.2 °F 55.4 °F 68% 30.09 in 7.0 mi North 9.2 mph - N/A   Scattered Clouds
4:47 AM 66.2 °F 53.6 °F 64% 30.10 in 7.0 mi North 8.1 mph - N/A   Clear
5:45 AM 66.2 °F 53.6 °F 64% 30.07 in 7.0 mi North 8.1 mph - N/A   Clear
6:41 AM 66.2 °F 55.4 °F 68% 30.11 in 8.0 mi North 8.1 mph - N/A   Partly Cloudy
7:42 AM 69.8 °F 57.2 °F 64% 30.13 in 8.0 mi North 8.1 mph - N/A   Scattered Clouds
8:44 AM 71.6 °F 57.2 °F 60% 30.18 in 8.0 mi North 9.2 mph - N/A   Clear
9:40 AM 73.4 °F 59.0 °F 61% 30.15 in 8.0 mi North 10.4 mph - N/A   Clear
10:42 AM 77.0 °F 57.2 °F 50% 30.14 in 8.0 mi NNE 9.2 mph - N/A   Scattered Clouds
11:42 AM 77.0 °F 60.8 °F 57% 30.09 in 8.0 mi NNE 13.8 mph - N/A   Scattered Clouds
12:43 PM 78.8 °F 57.2 °F 47% 30.07 in 8.0 mi NNE 11.5 mph - N/A   Partly Cloudy
1:47 PM 78.8 °F 55.4 °F 44% 30.03 in 8.0 mi ENE 9.2 mph - N/A   Scattered Clouds
2:48 PM 77.0 °F 57.2 °F 50% 30.05 in 8.0 mi NNE 11.5 mph - N/A   Mostly Cloudy
3:43 PM 75.2 °F 59.0 °F 57% 30.02 in 8.0 mi NE 9.2 mph - N/A   Mostly Cloudy
4:55 PM 73.4 °F 55.4 °F 53% 30.02 in 8.0 mi NNE 8.1 mph - N/A   Mostly Cloudy
5:54 PM 71.6 °F 57.2 °F 60% 30.00 in 7.0 mi NNE 6.9 mph - N/A   Mostly Cloudy
6:42 PM 69.8 °F 59.0 °F 68% 30.03 in 7.0 mi NNE 6.9 mph - N/A   Mostly Cloudy
7:45 PM 69.8 °F 55.4 °F 60% 30.06 in 7.0 mi NE 5.8 mph - N/A   Mostly Cloudy
8:50 PM 69.8 °F 60.8 °F 73% 30.10 in 7.0 mi NNE 2.3 mph - N/A   Mostly Cloudy
9:43 PM 69.8 °F 59.0 °F 68% 30.08 in 7.0 mi NNE 5.8 mph - N/A   Mostly Cloudy
10:40 PM 69.8 °F 57.2 °F 64% 30.08 in 7.0 mi North 6.9 mph - N/A   Mostly Cloudy
11:40 PM 69.8 °F 59.0 °F 68% 30.04 in 7.0 mi North 5.8 mph - N/A   Mostly Cloudy